Location: Unspecified
(0.0000°N, 0.0000°E)
Time: 19:16:20
(UTC+00:00)

deb Explorer IX - Pass Details

Date: 22 November 2019
Orbit: 545 x 1105 km, 38.8° (Epoch: 05 December)

Event Time Altitude Azimuth Distance (km) Brightness Sun altitude
Rises 08:19:21 0° 303° (WNW) 2,796 ? 35.6°
Reaches altitude 10° 08:21:44 10° 298° (WNW) 1,852 ? 36.2°
Maximum altitude 08:25:49 52° 221° (SW) 678 ? 37.1°
Drops below altitude 10° 08:29:47 10° 144° (SE) 1,807 ? 38.0°
Sets 08:32:05 0° 139° (SE) 2,720 ? 38.5°
